Weather History for Liberia, Costa Rica

Change the Weather History Date:

Saturday, April 13, 2013

  Actual Average Record
Temperature  
Mean Temperature 84 °F -  
Max Temperature 99 °F 92 °F - ()
Min Temperature 70 °F 76 °F - ()
Cooling Degree Days 20    
Growing Degree Days 34 (Base 50)    
Moisture  
Dew Point 64 °F    
Average Humidity 43    
Maximum Humidity 83    
Minimum Humidity 23    
Precipitation  
Precipitation 0.00 in - - ()
Sea Level Pressure  
Sea Level Pressure 29.75 in    
Wind  
Wind Speed 7 mph ()    
Max Wind Speed 21 mph    
Max Gust Speed -    
Visibility 8.3 miles    
Events      
T = Trace of Precipitation, MM = Missing Value Source: Averaged Metar Reports

Daily Weather History Graph

Daily Weather History Graph

Search for Another Location

Airport:

Trip Planner

Search our weather history database for the weather conditions in past years. The results will help you decide how hot, cold, wet, or windy it might be!

Date:

Astronomy

Apr. 13, 2013 Rise Set
Actual Time 5:32 AM CST 5:53 PM CST
Civil Twilight 5:10 AM CST 6:14 PM CST
Nautical Twilight 4:46 AM CST 6:39 PM CST
Astronomical Twilight 4:21 AM CST 7:04 PM CST
Moon 7:51 AM CST (4/13) 8:46 PM CST (4/13)
Length of Visible Light 13h 03m
Length of Day
12h 20m
Waxing Crescent, 11% of the Moon is Illuminated
Apr 13
Waxing Crescent
Apr 18
First Quarter
Apr 25
Full
May 2
Last Quarter
May 9
New

Hourly Weather History & Observations

Time (CST) Temp. Heat Index Dew Point Humidity Pressure Visibility Wind Dir Wind Speed Gust Speed Precip Events Conditions
6:00 AM 71 °F - 66 °F 80% 29.81 in 12 mi Calm Calm - -   Clear
6:00 AM 71.6 °F - 66.2 °F 83% 29.79 in - Calm Calm - N/A   Clear
7:00 AM 80.6 °F 82.7 °F 66.2 °F 61% 29.80 in - Calm Calm - N/A   Clear
8:00 AM 82.4 °F 84.6 °F 66.2 °F 58% 29.82 in - WNW 4.6 mph - N/A   Clear
9:00 AM 89 °F - 64 °F 33% 29.84 in 12 mi NE 5.8 mph - -   Clear
9:00 AM 89.6 °F 90.1 °F 62.6 °F 40% 29.82 in - NE 5.8 mph - N/A   Clear
10:00 AM 93.2 °F 93.3 °F 60.8 °F 34% 29.80 in - ENE 17.3 mph - N/A   Clear
11:00 AM 95.0 °F 96.0 °F 62.6 °F 34% 29.79 in 6.2 mi NE 20.7 mph - N/A   Scattered Clouds
12:00 PM 95 °F - 62 °F 24% 29.78 in 12 mi NE 16.1 mph - -   Scattered Clouds
12:00 PM 95.0 °F 96.0 °F 62.6 °F 34% 29.77 in 6.2 mi NE 16.1 mph - N/A   Scattered Clouds
1:00 PM 96.8 °F 97.1 °F 60.8 °F 30% 29.72 in 6.2 mi NE 16.1 mph - N/A   Scattered Clouds
2:00 PM 98.6 °F 100.0 °F 62.6 °F 30% 29.69 in 6.2 mi ENE 15.0 mph - N/A   Partly Cloudy
3:00 PM 96 °F - 62 °F 23% 29.68 in 12 mi NE 17.3 mph - -   Scattered Clouds
3:00 PM 95.0 °F 96.0 °F 62.6 °F 34% 29.67 in 6.2 mi NE 17.3 mph - N/A   Partly Cloudy
4:00 PM 95.0 °F 96.0 °F 62.6 °F 34% 29.66 in 6.2 mi NE 15.0 mph - N/A   Scattered Clouds
5:00 PM 93.2 °F 94.1 °F 62.6 °F 36% 29.67 in 6.2 mi ENE 13.8 mph - N/A   Scattered Clouds
6:00 PM 91 °F - 65 °F 32% 29.71 in 12 mi East 9.2 mph - -   Partly Cloudy
6:00 PM 91.4 °F 93.2 °F 64.4 °F 41% 29.69 in 6.2 mi East 9.2 mph - N/A   Scattered Clouds
7:00 PM 87.8 °F 91.4 °F 68.0 °F 52% 29.73 in 6.2 mi ESE 9.2 mph - N/A   Mostly Cloudy
8:00 PM 84.2 °F 87.3 °F 68.0 °F 58% 29.75 in - ESE 10.4 mph - N/A   Clear